Miscellaneous Local Product
Issued by NWS Hastings, NE

Home | Current Version | Previous Version | Text Only | Print | Product List | Glossary Off
Versions: 1 2 3 4 5 6 7 8 9 10 11 12 13 14 15 16 17 18 19 20 21 22 23 24 25 26 27 28 29 30 31 32 33 34 35 36 37 38 39 40 41 42 43 44 45 46 47 48 49 50

000
AXUS43 KGID 220802
MISGRI

GID CWA HOURLY WEATHER ROUNDUP
NATIONAL WEATHER SERVICE HASTINGS NE
300 AM CDT FRI AUG 22 2014

NOTE: "FAIR" INDICATES FEW OR NO CLOUDS BELOW 12,000 FEET WITH NO
SIGNIFICANT WEATHER AND/OR OBSTRUCTIONS TO VISIBILITY.

...SOUTH CENTRAL NEBRASKA...

CITY           SKY/WX    TMP DP  RH WIND       PRES   REMARKS
GRAND ISLAND   CLEAR     71  68  90 CALM      29.90F
HASTINGS       CLEAR     70  65  84 W3        29.89F
KEARNEY        CLEAR     72  66  83 CALM      29.92F
ORD            CLEAR     69  66  90 NW6       29.91F
YORK           MOCLDY    68 N/A N/A NE3       29.89R
AURORA         CLEAR     72  71  98 CALM      29.89S
LEXINGTON      CLEAR     69  67  94 CALM      29.94S FOG
HOLDREGE       CLEAR     69  66  92 CALM      29.93S
HEBRON         MOCLDY    71  65  83 CALM      29.87R

...NEBRASKA PANHANDLE...

CITY           SKY/WX    TMP DP  RH WIND       PRES   REMARKS
CHADRON        PTCLDY    62  49  62 W5        30.00R
ALLIANCE       CLOUDY    68  50  52 NW3       30.03S
SCOTTSBLUFF    CLOUDY    65  53  65 NW3       30.05R
SIDNEY         LGT RAIN  65  57  75 SW12      30.10S

...WESTERN AND NORTH CENTRAL NEBRASKA...

CITY           SKY/WX    TMP DP  RH WIND       PRES   REMARKS
VALENTINE      CLEAR     68  61  78 S6        29.96F
AINSWORTH      CLEAR     64  61  90 CALM      29.97S
ONEILL         CLEAR     67  65  91 N3        29.95S
BROKEN BOW     CLEAR     67  65  93 N7        29.95F
IMPERIAL       MOCLDY    70  64  81 NW5       30.01R
NORTH PLATTE   CLEAR     62  59  90 CALM      29.97F
MCCOOK         CLEAR     69  67  93 NW3       29.95S

...EASTERN NEBRASKA...

CITY           SKY/WX    TMP DP  RH WIND       PRES   REMARKS
NORFOLK        PTCLDY    72  70  93 CALM      29.89R
SO SIOUX CITY  MOCLDY    76  73  91 SW3       29.87R
TEKAMAH        CLOUDY    74  71  91 SE6       29.87R
COLUMBUS       MOCLDY    48 N/A N/A CALM      29.91R
ALBION         CLEAR     71  68  90 NW5       29.91S FOG
OMAHA EPPLEY   CLOUDY    76  71  85 CALM      29.87R
OFFUTT AFB     CLOUDY    74  74 100 NE3       29.87R
MILLARD        CLOUDY    78  75  92 CALM      29.87R
LINCOLN        CLOUDY    76  71  85 CALM      29.89R
NEBRASKA CITY  CLOUDY    76  76 100 E3        29.88R FOG
BEATRICE       CLOUDY    73  71  94 NE3       29.88R
FALLS CITY     CLOUDY    81  72  74 SW5       29.89R

...NORTHERN KANSAS...

CITY           SKY/WX    TMP DP  RH WIND       PRES   REMARKS
GOODLAND       CLEAR     66  58  75 S3        30.01F
HILL CITY      PTCLDY    72  66  81 NE3       29.90S
NORTON         SUNNY     70  63  78 CALM      29.91F
PHILLIPSBURG   CLEAR     73  66  78 CALM      29.89F HAZE
SMITH CENTER   CLEAR     72  66  83 CALM      29.88F
HAYS           PTCLDY    77  64  65 S12       29.88F
RUSSELL        PTCLDY    79  66  64 S12       29.86F
CONCORDIA      PTCLDY    76  71  85 S10       29.86F
SALINA         MOCLDY    84  71  65 S13       29.87F
TOPEKA         CLOUDY    84  73  69 S7        29.89F HX  90



USA.gov is the U.S. government's official web portal to all federal, state and local government web resources and services.